STARLINK-4286, 52990

Orbit data source: Space-Track

STARLINK-4286, 52990 is a payload satellite owned by SpaceX/Seattle (US) in LEO that was launched on Thu, 07 Jul 2022 UTC via an FALCON 9 launch vehicle from the Air Force Eastern Test Range (AFETR). Payload-class satellites include a variety of spacecraft equipped with specific instruments for various scientific and technological missions. These include communications satellites like Starlink; space stations such as the ISS; scientific satellites like the Hubble; Earth observation satellites from companies like Planet Labs, Umbra, and HawkEye 360; GPS; miniature CubeSats for education and research; and military/defense satellites.

Loading next visibility...
Identifier
52990, 2022-076E
Orbit
LEO
Country
Flag of USUS
Related business
Manufacturer
SpaceX/Seattle
Mission
Operational spacecraft
Bus & Motor
STARLINK, Unknown motor
Mass
297 kg wet, ~275 kg dry
Launch date (UTC)
2022-07-07 (3 years ago)
Launch vehicle
FALCON 9
Launch site
Air Force Eastern Test Range (AFETR)
Object type
Payload
Rocket body
Debris
Shape & HBR
Unknown shape, 10.1 m
Radar Cross Section
Large (>1 m²)

Expand to show TLE details & history
Last TLE update: 14 hours ago

TLE from 14 hours ago
0 STARLINK-4286
1 52990U 22076E   25341.20628475  .00001682  00000-0  12373-3 0  9997
2 52990  53.2145 159.2954 0001173  82.5017 277.6108 15.08841459188741
Epoch: 2025-12-07T04:57Z
TLE epoch observation values (Epoch: 2025-12-07T04:57:03.002Z)
Latitude
-0.00005°
Longitude
8.80986°
Altitude
540.529 km
Speed
7.593 km/s
True Right ascension
10h 37m 10s
True Declination
0° 00' 00"
Sunlit
Object was in daylight at epoch
Visualization orbit readout
Latitude
Unknown
Longitude
Unknown
Altitude
Unknown
Speed
Unknown
Apparent Right ascension
Unknown
Apparent Declination
Unknown
Sunlit
N/A
Visualization observer readout
Local Sidereal Time
16:39:39
Azimuth
Unknown
Elevation
Unknown
Doppler factor
Unknown
Orbital elements
Apogee altitude
540.796 km
Perigee altitude
539.173 km
Semi-major axis
6,918.121 km
Eccentricity
0.00012
Inclination
53.2145°
RAAN
159.2954°
Arg. of periapsis
82.5017°
True anomaly
277.59748°
Mean anomaly
277.6108°
Eccentric anomaly
277.60414°
Mean motion
3.77191 °/min
Orbital period
95.44 mins
BSTAR
0.00012373
Loading maneuver chart data...
Computing Atmospheric mass density...
Loading historical data...
Loading historical data...
Loading historical data...
Loading historical data...
Loading historical data...
Loading historical data...
Loading historical data...

Documentation

Showing up to 5 results
|